Wind_Speed
54 55 55 48 47 45 38 38 38 37 35 42 39 40 30 31 27 41 39 40 39 37 41 41 41 39 38 34 32 30 29 29 26 25 24 22 24 22 21 21 20 21 21 22
54 55 49 43 43 43 41 42 40 38 38 44 43 44 37 38 35 31 42 42 40 41 44 42 42 41 37 37 35 33 31 32 30 28 28 26 25 24 24 24 24 23 23 23
45 45 46 46 42 40 40 39 37 38 39 40 45 49 45 37 36 33 36 42 48 45 47 46 44 42 42 38 36 36 36 35 34 32 31 28 27 26 27 27 25 25 25 25
47 45 43 43 42 44 47 43 41 41 40 41 45 53 47 45 41 39 40 38 40 48 50 51 49 45 43 41 42 40 39 36 35 35 34 31 30 29 30 28 27 27 28 27
46 42 39 38 37 43 41 46 46 44 45 45 43 54 53 46 45 44 40 39 37 40 51 54 52 48 47 48 45 43 42 40 37 36 35 33 32 32 34 31 28 28 30 30
49 46 47 45 46 51 50 50 50 50 51 50 45 50 59 51 47 40 42 40 39 39 40 54 55 55 52 51 49 47 44 42 41 39 37 35 35 35 36 34 32 30 31 33
50 49 48 47 51 53 50 51 53 54 54 51 53 50 49 46 44 44 43 41 42 40 45 44 56 59 56 55 53 50 47 45 43 41 39 36 37 37 39 37 37 35 34 36
50 52 48 49 51 55 58 54 57 57 54 50 54 49 38 44 41 39 41 41 45 44 41 47 52 62 61 56 55 53 51 48 46 44 43 41 40 39 41 41 39 38 38 39
54 55 52 50 55 57 56 56 52 58 57 57 52 43 35 35 40 42 40 41 47 41 44 44 55 61 60 56 54 53 53 52 50 48 45 43 43 42 42 42 42 41 41 42
56 55 55 55 55 57 58 51 53 55 56 59 53 49 38 39 43 43 39 39 41 45 47 48 51 61 59 56 53 54 55 54 53 51 48 47 45 44 44 44 44 44 45 45
59 57 56 56 57 56 54 57 59 58 59 58 58 55 41 38 40 43 43 43 42 44 46 47 47 59 56 57 55 53 55 55 52 51 50 48 47 47 47 46 46 47 47 48
53 54 53 52 52 52 52 52 52 58 62 64 61 57 43 46 45 44 46 47 48 49 51 53 49 52 59 58 58 55 56 53 52 52 52 51 50 48 48 48 48 49 50 52
49 51 52 53 53 54 55 56 55 54 53 56 55 59 50 51 48 48 52 54 50 50 51 53 49 52 53 59 54 57 55 51 51 52 52 52 51 50 49 49 51 52 51 51
47 45 46 48 45 47 49 52 52 53 54 51 55 49 51 52 50 50 52 50 47 38 37 42 47 51 55 53 58 52 50 51 51 50 50 53 52 51 52 52 52 51 50 52
44 42 42 44 45 47 47 48 49 53 53 55 52 52 43 57 55 51 48 49 47 48 41 39 42 49 49 53 48 51 54 51 50 51 50 51 51 49 49 49 50 53 51 51
44 41 38 42 47 48 47 44 47 49 48 51 48 49 31 49 55 54 53 44 47 46 42 45 41 44 46 48 57 50 48 51 51 51 52 52 51 51 51 51 50 51 48 47
37 35 37 41 45 44 49 40 47 45 43 43 46 28 45 47 49 47 44 44 45 45 42 43 44 45 47 50 52 52 53 52 50 49 49 50 50 51 51 50 48 47 47 47
37 37 40 43 43 48 42 42 41 42 39 39 41 41 40 38 39 39 38 40 37 43 46 45 45 44 43 44 45 48 50 51 51 51 52 52 51 48 47 47 46 49 49 51
40 38 42 47 48 44 39 47 42 37 35 34 36 35 40 39 40 38 35 32 33 46 49 49 46 47 42 41 41 42 46 47 47 48 48 48 46 46 47 47 51 52 56 60
40 38 41 45 47 45 39 40 39 37 34 34 34 33 32 35 41 33 30 33 36 48 50 51 54 54 50 47 45 44 43 46 48 48 47 50 49 48 52 55 57 62 65 66
36 40 45 48 46 43 42 39 37 38 25 16 23 33 34 29 32 33 27 33 36 40 47 55 52 51 55 57 55 54 54 54 54 55 54 53 53 54 59 63 64 64 67 73
43 41 44 48 44 40 40 39 42 37 37 34 30 33 31 30 26 22 24 28 31 34 40 44 45 47 47 51 52 52 53 51 51 53 55 57 59 60 62 63 66 69 63 59
44 42 42 45 41 36 37 40 38 33 37 35 36 38 40 39 37 36 33 26 28 31 34 39 44 50 48 50 52 52 53 53 54 57 58 59 61 64 68 69 65 58 59 60
42 38 40 45 43 41 43 41 40 39 39 38 36 37 38 39 37 36 35 35 36 38 37 38 38 43 50 56 59 60 61 64 64 63 63 58 54 57 59 60 60 61 60 61
40 37 40 44 46 43 45 47 47 47 47 46 45 44 45 45 42 41 42 40 39 38 40 40 41 41 42 43 45 46 48 49 50 51 52 51 52 53 54 57 60 62 63 58
40 41 46 44 42 45 42 44 50 53 54 50 49 49 46 44 42 42 44 44 44 42 44 45 46 46 46 46 47 46 48 50 53 56 56 55 54 54 55 59 61 63 63 60
Wind_Direction
234 238 243 252 249 251 246 247 247 244 239 243 242 248 233 242 246 229 228 231 230 231 232 233 235 232 225 226 228 234 239 242 245 253 260 264 267 269 268 270 274 274 278 281
231 235 239 240 242 245 246 246 245 245 243 243 247 246 241 241 242 235 233 233 233 234 235 234 237 234 230 230 230 233 240 248 250 252 255 259 262 267 269 270 272 274 278 280
237 239 241 242 242 243 245 247 246 248 247 248 248 248 248 239 243 244 230 240 241 240 239 238 237 239 236 234 235 238 239 244 250 255 259 261 263 265 268 270 270 274 276 278
230 235 233 236 239 244 246 246 248 250 252 250 250 251 247 246 243 244 244 241 242 242 241 241 240 241 244 243 240 241 245 246 249 255 257 259 263 265 264 264 269 274 276 279
236 232 235 231 234 235 238 237 240 245 245 247 252 255 245 249 249 248 255 252 259 258 241 241 243 243 243 243 244 245 247 249 248 250 254 257 259 262 265 267 267 271 276 279
222 222 222 220 224 228 230 232 235 237 239 244 242 248 247 249 251 252 256 256 254 258 255 242 243 245 245 247 247 246 248 248 249 250 252 256 257 260 264 267 268 270 274 277
224 222 219 219 222 228 230 229 233 237 236 253 243 241 257 259 259 256 255 258 256 264 257 253 248 248 247 248 248 248 248 248 249 251 253 253 256 260 263 265 267 269 272 275
226 226 227 230 229 227 230 230 234 239 241 245 242 247 257 264 262 263 259 258 262 272 258 256 252 246 245 246 248 249 250 249 249 251 253 253 254 257 261 265 265 268 270 274
223 225 229 231 233 234 236 235 239 244 245 244 243 249 247 248 253 254 259 255 257 267 259 268 251 248 243 243 245 247 249 251 251 252 253 254 254 256 259 263 265 267 269 271
225 231 231 235 238 238 240 244 247 247 248 247 242 245 254 250 256 260 260 260 259 260 258 261 255 247 239 243 243 245 247 249 251 252 253 255 256 258 260 263 267 269 271 273
225 229 230 235 236 239 241 244 246 249 249 250 246 243 242 248 249 253 256 255 254 254 254 259 257 252 242 241 245 246 246 248 250 253 254 255 256 258 261 264 266 270 272 273
234 235 236 238 241 245 247 248 250 250 245 250 254 241 241 241 248 248 251 253 252 252 253 255 255 254 252 242 244 246 246 248 249 251 253 254 255 257 260 264 267 269 272 274
235 235 239 243 245 247 251 251 254 256 255 255 256 248 243 241 245 251 253 260 259 254 251 252 256 249 244 242 244 244 245 246 247 250 252 254 256 258 261 264 266 268 270 271
236 239 240 241 249 254 255 254 256 257 257 263 262 263 242 247 246 252 255 258 261 254 250 248 248 249 243 243 246 244 243 244 247 249 254 255 255 257 259 261 263 264 265 268
232 235 241 240 242 246 248 245 249 253 256 260 263 262 245 247 256 253 249 249 254 253 243 244 247 248 243 237 239 242 242 243 244 249 250 251 252 254 256 258 259 260 263 266
224 230 238 241 239 241 248 248 251 255 258 262 264 259 265 244 245 251 252 246 244 245 242 239 241 240 239 240 235 238 243 243 243 245 246 248 251 254 254 255 258 260 263 266
237 243 247 246 247 249 249 251 249 252 253 260 260 266 258 244 246 250 246 240 234 237 236 234 231 235 235 236 237 239 237 240 242 244 245 247 249 251 254 256 259 263 264 266
234 241 245 244 243 246 250 246 252 256 255 254 258 253 242 239 240 244 248 247 246 234 229 229 226 229 235 237 237 238 240 242 244 246 247 249 251 253 256 259 260 260 264 269
246 241 240 239 244 249 247 244 245 254 247 251 253 254 249 251 257 250 251 249 246 234 231 227 230 230 237 238 241 244 245 244 244 246 248 250 252 254 255 255 257 262 273 278
250 247 241 244 247 254 255 243 246 247 246 248 254 258 260 263 264 261 250 242 239 231 233 236 236 232 231 239 242 242 243 246 248 248 250 252 252 251 253 257 264 272 273 274
251 250 251 250 250 258 256 252 253 246 245 246 248 246 255 267 266 258 249 245 242 241 243 241 245 244 238 239 241 241 241 242 243 244 245 248 251 256 259 264 269 271 275 276
260 255 249 245 247 249 249 251 249 255 262 266 260 252 255 257 264 265 257 243 249 249 249 252 251 251 250 249 250 252 253 255 257 258 258 260 262 264 267 272 273 274 276 278
250 253 249 245 247 257 261 264 263 259 256 257 258 256 255 259 260 263 263 254 243 247 251 250 250 250 246 245 248 249 253 255 257 260 262 265 264 265 267 271 271 271 277 280
253 251 248 243 237 242 253 255 256 258 254 253 254 259 257 254 253 252 250 250 253 254 254 255 256 252 249 248 249 251 252 254 260 262 264 267 268 269 269 271 272 276 279 281
249 246 246 245 248 250 254 256 256 258 260 260 257 255 255 255 254 251 250 249 251 253 253 254 255 258 260 258 258 257 258 260 262 261 261 264 267 268 270 272 274 277 278 279
245 248 240 241 246 250 253 254 255 256 257 259 259 261 260 260 262 260 257 256 257 259 259 260 260 258 259 259 262 259 262 262 261 262 264 267 269 271 271 272 272 274 277 281
Height
5751 5758 5765 5774 5782 5786 5790 5795 5800 5805 5809 5808 5812 5815 5827 5827 5831 5836 5840 5844 5848 5853 5852 5854 5858 5861 5865 5868 5870 5872 5876 5876 5878 5879 5880 5879 5880 5881 5881 5881 5881 5880 5879 5879
5744 5751 5760 5767 5772 5777 5780 5785 5790 5796 5800 5802 5806 5810 5818 5821 5823 5829 5835 5838 5842 5846 5846 5849 5853 5855 5859 5862 5864 5866 5868 5872 5873 5873 5873 5875 5875 5876 5876 5875 5876 5876 5876 5875
5739 5748 5753 5758 5763 5767 5771 5777 5782 5786 5790 5794 5797 5802 5809 5818 5818 5822 5827 5833 5835 5839 5842 5844 5847 5852 5853 5856 5859 5860 5859 5863 5867 5867 5867 5868 5869 5869 5869 5869 5869 5870 5870 5869
5726 5735 5743 5748 5754 5758 5762 5769 5773 5777 5781 5786 5790 5791 5802 5809 5814 5816 5819 5823 5825 5829 5834 5837 5839 5845 5851 5853 5849 5851 5854 5855 5857 5859 5861 5860 5862 5863 5861 5861 5862 5863 5863 5862
5723 5728 5736 5742 5750 5751 5757 5759 5762 5765 5768 5773 5784 5781 5793 5800 5808 5811 5814 5818 5819 5821 5823 5827 5833 5838 5841 5842 5844 5845 5846 5848 5849 5851 5854 5854 5855 5856 5855 5855 5854 5854 5855 5855
5710 5719 5725 5735 5737 5739 5743 5747 5750 5751 5754 5759 5772 5770 5780 5793 5799 5803 5805 5808 5812 5814 5815 5819 5821 5825 5830 5835 5836 5837 5838 5840 5842 5843 5846 5847 5847 5848 5848 5849 5849 5847 5847 5847
5700 5707 5716 5722 5725 5728 5733 5737 5737 5740 5741 5754 5753 5758 5780 5783 5789 5794 5798 5801 5803 5805 5807 5809 5812 5814 5819 5824 5827 5828 5829 5831 5833 5835 5837 5838 5838 5839 5840 5840 5841 5839 5838 5837
5690 5697 5704 5712 5715 5719 5719 5724 5728 5729 5733 5744 5742 5752 5772 5772 5777 5782 5786 5789 5791 5793 5794 5797 5799 5802 5806 5812 5816 5819 5821 5822 5823 5824 5827 5827 5829 5829 5831 5831 5832 5831 5830 5829
5679 5686 5693 5702 5705 5708 5711 5716 5724 5719 5723 5726 5734 5748 5760 5763 5766 5769 5773 5775 5780 5781 5783 5785 5785 5787 5793 5798 5804 5807 5809 5811 5813 5814 5815 5817 5818 5818 5819 5820 5822 5821 5820 5819
5673 5677 5685 5689 5692 5694 5703 5711 5709 5711 5714 5718 5727 5734 5748 5754 5756 5757 5761 5764 5765 5766 5769 5772 5775 5774 5779 5786 5791 5795 5798 5800 5801 5803 5805 5806 5807 5808 5807 5808 5810 5809 5809 5807
5661 5667 5675 5676 5682 5688 5692 5694 5700 5701 5704 5710 5717 5722 5738 5743 5744 5744 5745 5748 5751 5754 5756 5758 5761 5763 5766 5772 5777 5782 5785 5788 5790 5792 5794 5795 5796 5797 5796 5797 5797 5798 5796 5795
5656 5659 5665 5672 5676 5678 5680 5687 5689 5688 5698 5696 5700 5711 5729 5728 5729 5733 5733 5733 5735 5739 5744 5747 5749 5751 5755 5760 5763 5767 5772 5776 5778 5780 5782 5783 5784 5785 5785 5785 5786 5785 5785 5784
5648 5650 5655 5660 5665 5670 5674 5679 5681 5683 5683 5682 5687 5704 5713 5714 5717 5719 5720 5719 5721 5725 5728 5733 5735 5738 5740 5746 5750 5754 5758 5761 5764 5767 5769 5771 5772 5773 5773 5774 5774 5773 5772 5771
5633 5639 5646 5653 5657 5660 5663 5668 5671 5671 5668 5679 5677 5693 5704 5705 5709 5708 5708 5709 5710 5711 5714 5716 5721 5724 5729 5734 5738 5741 5744 5747 5750 5752 5754 5758 5759 5760 5761 5761 5762 5762 5761 5760
5622 5628 5635 5640 5642 5647 5651 5653 5656 5656 5664 5659 5676 5672 5690 5690 5691 5691 5694 5696 5699 5701 5703 5705 5709 5712 5715 5719 5725 5727 5730 5732 5735 5738 5741 5744 5745 5746 5747 5749 5749 5749 5747 5747
5613 5621 5627 5630 5632 5635 5637 5641 5647 5651 5654 5652 5663 5660 5680 5672 5673 5674 5679 5680 5683 5686 5692 5695 5696 5699 5703 5705 5708 5712 5716 5719 5722 5724 5728 5730 5732 5733 5734 5735 5736 5736 5735 5735
5608 5612 5613 5618 5621 5624 5624 5640 5635 5640 5644 5647 5647 5662 5652 5658 5657 5662 5663 5661 5665 5675 5680 5682 5684 5686 5689 5691 5695 5698 5702 5707 5710 5712 5715 5717 5718 5720 5721 5722 5723 5724 5723 5721
5597 5600 5604 5607 5611 5610 5624 5625 5628 5630 5635 5636 5641 5641 5640 5643 5644 5645 5649 5654 5663 5665 5667 5669 5671 5674 5678 5682 5686 5689 5693 5697 5699 5702 5704 5705 5706 5708 5710 5711 5711 5710 5709 5708
5591 5590 5592 5594 5597 5606 5611 5613 5618 5621 5627 5629 5630 5628 5629 5632 5630 5636 5645 5645 5650 5653 5657 5660 5662 5665 5669 5673 5676 5679 5683 5686 5688 5691 5692 5693 5695 5696 5698 5698 5696 5696 5695 5694
5582 5583 5585 5589 5589 5594 5600 5604 5607 5613 5615 5618 5618 5620 5622 5622 5621 5633 5633 5632 5636 5640 5643 5648 5650 5654 5657 5661 5664 5666 5671 5675 5678 5679 5680 5680 5682 5682 5682 5682 5682 5682 5682 5680
5571 5573 5577 5580 5581 5588 5589 5594 5603 5604 5614 5609 5611 5612 5614 5615 5617 5620 5622 5622 5625 5628 5632 5637 5641 5646 5648 5650 5652 5655 5659 5663 5664 5664 5665 5666 5667 5668 5668 5669 5669 5668 5666 5665
5561 5564 5566 5571 5574 5576 5578 5584 5591 5600 5600 5602 5605 5606 5606 5608 5609 5610 5612 5614 5617 5620 5624 5626 5630 5634 5636 5638 5639 5643 5646 5648 5649 5649 5651 5653 5654 5654 5654 5653 5652 5652 5650 5648
5547 5552 5558 5563 5567 5572 5575 5578 5580 5586 5587 5590 5593 5595 5596 5597 5599 5601 5602 5605 5607 5610 5612 5614 5617 5619 5622 5625 5627 5631 5634 5635 5634 5635 5636 5637 5638 5638 5638 5637 5636 5635 5634 5633
5537 5544 5547 5552 5557 5560 5563 5566 5570 5574 5576 5578 5581 5583 5585 5587 5589 5590 5591 5593 5595 5599 5601 5603 5605 5607 5609 5612 5615 5618 5619 5619 5619 5620 5621 5622 5622 5622 5622 5621 5621 5620 5619 5618
5527 5534 5538 5541 5545 5550 5554 5556 5561 5562 5564 5566 5568 5571 5572 5574 5578 5580 5582 5582 5584 5588 5590 5592 5593 5595 5596 5598 5600 5602 5603 5604 5605 5607 5608 5608 5608 5607 5607 5607 5606 5606 5604 5603
5518 5523 5527 5532 5538 5541 5544 5545 5546 5549 5551 5553 5556 5559 5562 5563 5566 5570 5572 5573 5573 5576 5578 5580 5582 5583 5585 5586 5587 5588 5589 5591 5592 5593 5593 5593 5593 5593 5593 5592 5591 5589 5588 5588